Location: Unspecified
(0.0000°N, 0.0000°E)
Time: 18:29:04
(UTC+00:00)

Kosmos-1333 - Visible Passes

Search period start: 17 May 2026 00:00
Search period end: 27 May 2026 00:00
Orbit: 965 x 1010 km, 82.9° (Epoch: 17 May)

Date Brightness Start Highest point End Pass type
(mag) Time Alt. Az. Time Alt. Az. Time Alt. Az.
19 May 9.0 20:34:03 18° N 20:34:03 18° N 20:35:30 10° N visible
20 May 9.0 21:01:42 22° NNW 21:01:42 22° NNW 21:03:54 10° NNW visible
21 May 8.3 19:44:25 23° NE 19:44:25 23° NE 19:47:05 10° NNE visible
21 May 9.5 21:29:14 15° WNW 21:29:14 15° WNW 21:30:53 10° NW visible
22 May 7.4 20:11:47 54° NNE 20:11:47 54° NNE 20:16:32 10° N visible
23 May 8.5 18:54:09 15° E 18:54:09 15° E 18:57:04 10° ENE visible
23 May 8.0 20:38:56 42° W 20:38:58 42° W 20:44:54 10° NNW visible
24 May 7.5 19:20:59 32° ESE 19:22:27 37° E 19:28:11 10° NNE visible
24 May 9.3 21:05:45 15° WSW 21:07:45 18° W 21:11:47 10° NW visible
25 May 6.9 19:47:15 25° S 19:51:13 86° E 19:57:35 10° N visible
26 May 8.4 18:31:07 10° SE 18:34:42 16° E 18:38:18 10° ENE visible
26 May 8.1 20:14:08 10° SSW 20:19:59 41° W 20:25:54 10° NNW visible
